Retour au catalogue

STARLINK-33899

ActifCommunicationsVLEO
NORAD 63799·PAYLOAD·🇺🇸 United States

Lancé May 2, 2025 depuis Cape Canaveral Space Force Station

Loading…

Prochains Passages (prochaines 24 heures)

TLE

FraisSource: CelesTrak SupGP

Époque: Sep 14, 2026, 14:12 UTC

1 63799C 25091AA  26257.59215278 -.00024152  00000+0 -87477-3 0  2570
2 63799  43.0042  65.6365 0001613 265.7595  75.9491 15.27590048    17

Suivez STARLINK-33899 en temps réel avec AllMySat

Download on the App Store